Torna al catalogo

COSMOS 2251 DEB

AttivoLEO
NORAD 34050·DEBRIS·🇷🇺 Russia

Lanciato Jun 16, 1993 da Plesetsk Cosmodrome

Loading…

Prossimi Passaggi (prossime 24 ore)

TLE

AggiornatoSource: Space-Track

Epoca: Sep 13, 2026, 18:59 UTC

1 34050U 93036JM  26256.79104655  .00000336  00000-0  21187-3 0  9995
2 34050  74.0845 257.9221 0219861 256.5527 281.9309 13.96757377892713

Traccia COSMOS 2251 DEB in tempo reale con AllMySat

Download on the App Store